Location: Austin
(30.3000°N, 97.7500°W)
Time: 23:19:47
(UTC-05:00)

CZ-4B R/B - Pass Details

Date: 05 September 2024
Orbit: 807 x 881 km, 99.0° (Epoch: 14 September)

Event Time Altitude Azimuth Distance (km) Brightness Sun altitude
Exits shadow 21:01:45 23° 128° (SE) 1,736 4.3 -16.3°
Maximum altitude 21:04:41 42° 72° (ENE) 1,205 3.6 -16.9°
Drops below altitude 10° 21:09:48 10° 3° (N) 2,468 5.8 -18.0°
Sets 21:12:15 0° 357° (N) 3,395 6.6 -18.5°
